Los Alamos, NM

6:16 PM MDT on August 18, 2017 (GMT -0600)
Los Alamos

Weather History for KLAM - January, 2014

Change the Weather History Date:

Friday, January 24, 2014

  Actual Average Record
Temperature  
Mean Temperature 27 °F -  
Max Temperature 40 °F 39 °F 57 °F (1953)
Min Temperature 14 °F 16 °F 3 °F (1966)
Degree Days  
Heating Degree Days 38    
Moisture  
Dew Point 9 °F    
Average Humidity 51    
Maximum Humidity 91    
Minimum Humidity 20    
Precipitation  
Precipitation 0.00 in - - ()
Sea Level Pressure  
Sea Level Pressure 30.41 in    
Wind  
Wind Speed 4 mph (North)    
Max Wind Speed 12 mph    
Max Gust Speed 17 mph    
Visibility 10 miles    
Events      
Averages and records for this station are not official NWS values.
T = Trace of Precipitation, MM = Missing Value Source: NWS Daily Summary

Daily Weather History Graph

Daily Weather History Graph

Search for Another Location

Airport or City:

Trip Planner

Search our weather history database for the weather conditions in past years. The results will help you decide how hot, cold, wet, or windy it might be!

Date:

Astronomy

Jan. 24, 2014 Rise Set
Actual Time 7:10 AM MST 5:23 PM MST
Civil Twilight 6:43 AM MST 5:51 PM MST
Nautical Twilight 6:12 AM MST 6:22 PM MST
Astronomical Twilight 5:42 AM MST 6:52 PM MST
Moon 12:43 AM MST (1/24) 11:42 AM MST (1/24)
Length of Visible Light 11h 07m
Length of Day
10h 13m
Last Quarter, 44% of the Moon is Illuminated
Jan 24
Last Quarter
Jan 30
New
Feb 6
First Quarter
Feb 14
Full
Feb 22
Last Quarter

Hourly Weather History & Observations

Time (MST) Temp. Windchill Dew Point Humidity Pressure Visibility Wind Dir Wind Speed Gust Speed Precip Events Conditions
12:15 AM 14.0 °F 8.2 °F 11.8 °F 91% 30.46 in 10.0 mi SW 3.5 mph - N/A   Clear
12:35 AM 14.5 °F - 11.8 °F 89% 30.46 in 10.0 mi Calm Calm - N/A   Clear
12:55 AM 14.5 °F - 11.8 °F 89% 30.45 in 10.0 mi Calm Calm - N/A   Clear
1:15 AM 14.4 °F 8.6 °F 11.8 °F 90% 30.44 in 10.0 mi NNW 3.5 mph - N/A   Clear
1:35 AM 14.5 °F 7.1 °F 10.4 °F 84% 30.44 in 10.0 mi NNW 4.6 mph - N/A   Clear
1:55 AM 14.9 °F 9.2 °F 11.1 °F 85% 30.45 in 10.0 mi North 3.5 mph - N/A   Clear
2:15 AM 14.5 °F 7.1 °F 11.3 °F 87% 30.45 in 10.0 mi NNE 4.6 mph - N/A   Clear
2:35 AM 14.5 °F 7.1 °F 10.4 °F 84% 30.44 in 10.0 mi NW 4.6 mph - N/A   Clear
2:55 AM 14.2 °F - 10.9 °F 87% 30.44 in 10.0 mi Calm Calm - N/A   Clear
3:15 AM 16.3 °F - 11.8 °F 82% 30.44 in 10.0 mi Calm Calm - N/A   Clear
3:35 AM 18.0 °F 12.7 °F 12.0 °F 78% 30.44 in 10.0 mi North 3.5 mph - N/A   Clear
3:55 AM 18.0 °F 8.7 °F 11.5 °F 76% 30.43 in 10.0 mi North 6.9 mph - N/A   Clear
4:15 AM 15.8 °F 8.6 °F 10.9 °F 81% 30.43 in 10.0 mi North 4.6 mph - N/A   Clear
4:35 AM 15.6 °F 3.2 °F 11.1 °F 82% 30.43 in 10.0 mi NW 10.4 mph 16.1 mph N/A   Clear
4:55 AM 16.0 °F 5.3 °F 10.9 °F 81% 30.43 in 10.0 mi NW 8.1 mph - N/A   Clear
5:15 AM 17.1 °F 5.0 °F 11.3 °F 78% 30.42 in 10.0 mi NNW 10.4 mph - N/A   Clear
5:35 AM 16.5 °F 6.0 °F 10.9 °F 79% 30.43 in 10.0 mi North 8.1 mph - N/A   Clear
5:55 AM 16.7 °F 9.6 °F 11.1 °F 79% 30.44 in 10.0 mi NW 4.6 mph - N/A   Clear
6:15 AM 16.5 °F - 11.1 °F 79% 30.44 in 10.0 mi Calm Calm - N/A   Clear
6:35 AM 16.0 °F - 10.8 °F 80% 30.44 in 10.0 mi Calm Calm - N/A   Clear
6:55 AM 17.1 °F - 11.3 °F 78% 30.44 in 10.0 mi Calm Calm - N/A   Clear
7:15 AM 17.6 °F 9.3 °F 11.7 °F 78% 30.43 in 10.0 mi North 5.8 mph - N/A   Clear
7:35 AM 17.6 °F 7.3 °F 11.3 °F 76% 30.44 in 10.0 mi North 8.1 mph - N/A   Clear
7:55 AM 18.0 °F 9.8 °F 11.3 °F 75% 30.45 in 10.0 mi North 5.8 mph 10.4 mph N/A   Clear
8:15 AM 19.0 °F 9.0 °F 12.2 °F 75% 30.45 in 10.0 mi North 8.1 mph - N/A   Clear
8:35 AM 20.5 °F 9.2 °F 12.7 °F 72% 30.45 in 10.0 mi North 10.4 mph - N/A   Clear
8:55 AM 22.6 °F 11.9 °F 13.3 °F 67% 30.45 in 10.0 mi North 10.4 mph - N/A   Clear
9:15 AM 24.3 °F 16.3 °F 14.2 °F 65% 30.45 in 10.0 mi North 6.9 mph - N/A   Clear
9:35 AM 24.6 °F - 14.4 °F 65% 30.47 in 10.0 mi Calm Calm - N/A   Clear
9:55 AM 26.2 °F - 14.4 °F 61% 30.47 in 10.0 mi Calm Calm - N/A   Clear
10:15 AM 25.7 °F - 14.0 °F 61% 30.47 in 10.0 mi Calm Calm - N/A   Clear
10:35 AM 27.9 °F - 13.6 °F 55% 30.47 in 10.0 mi Calm Calm - N/A   Clear
10:55 AM 29.5 °F - 12.9 °F 50% 30.47 in 10.0 mi Calm Calm - N/A   Clear
11:15 AM 32.0 °F 25.6 °F 12.6 °F 45% 30.47 in 10.0 mi NE 6.9 mph - N/A   Clear
11:35 AM 33.3 °F 27.1 °F 11.8 °F 41% 30.46 in 10.0 mi ENE 6.9 mph - N/A   Clear
11:55 AM 34.2 °F 28.2 °F 10.8 °F 38% 30.44 in 10.0 mi ENE 6.9 mph - N/A   Clear
12:15 PM 35.8 °F 27.8 °F 8.2 °F 32% 30.43 in 10.0 mi NNE 11.5 mph 17.3 mph N/A   Clear
12:35 PM 36.3 °F 29.5 °F 7.0 °F 29% 30.42 in 10.0 mi NE 9.2 mph - N/A   Clear
12:55 PM 37.2 °F 31.9 °F 5.7 °F 27% 30.41 in 10.0 mi NNE 6.9 mph - N/A   Clear
1:15 PM 37.6 °F 31.6 °F 4.3 °F 25% 30.39 in 10.0 mi NNE 8.1 mph - N/A   Clear
1:35 PM 37.8 °F 33.3 °F 4.3 °F 25% 30.38 in 10.0 mi North 5.8 mph - N/A   Clear
1:55 PM 39.0 °F 36.8 °F 3.2 °F 22% 30.38 in 10.0 mi NE 3.5 mph - N/A   Clear
2:10 PM 39.7 °F 35.6 °F 1.4 °F 20% 30.37 in 10.0 mi ENE 5.8 mph - N/A   Clear
2:35 PM 39.7 °F - 2.5 °F 21% 30.37 in 10.0 mi Calm Calm - N/A   Clear
2:55 PM 39.9 °F - 4.1 °F 23% 30.37 in 10.0 mi Calm Calm - N/A   Clear
3:15 PM 40.1 °F 38.0 °F 1.9 °F 20% 30.37 in 10.0 mi ENE 3.5 mph - N/A   Clear
3:35 PM 40.1 °F 38.0 °F 2.1 °F 20% 30.37 in 10.0 mi ENE 3.5 mph - N/A   Clear
3:55 PM 40.1 °F - 2.5 °F 21% 30.37 in 10.0 mi Calm Calm - N/A   Clear
4:15 PM 38.8 °F 36.5 °F 7.0 °F 27% 30.36 in 10.0 mi SSE 3.5 mph - N/A   Clear
4:35 PM 38.3 °F - 7.2 °F 28% 30.37 in 10.0 mi Calm Calm - N/A   Clear
4:55 PM 37.2 °F 31.9 °F 8.4 °F 30% 30.37 in 10.0 mi South 6.9 mph - N/A   Clear
5:15 PM 36.5 °F - 7.9 °F 30% 30.37 in 10.0 mi Calm Calm - N/A   Clear
5:35 PM 36.7 °F - 7.3 °F 30% 30.37 in 10.0 mi Calm Calm - N/A   Clear
5:55 PM 35.8 °F 33.0 °F 7.7 °F 31% 30.38 in 10.0 mi WSW 3.5 mph - N/A   Clear
6:15 PM 35.4 °F - 7.0 °F 31% 30.37 in 10.0 mi Calm Calm - N/A   Clear
6:35 PM 35.4 °F 31.5 °F 7.7 °F 32% 30.38 in 10.0 mi West 4.6 mph - N/A   Clear
6:55 PM 34.9 °F 30.8 °F 7.7 °F 32% 30.37 in 10.0 mi West 4.6 mph - N/A   Clear
7:15 PM 35.6 °F - 7.2 °F 31% 30.38 in 10.0 mi Calm Calm - N/A   Clear
7:35 PM 36.1 °F - 6.4 °F 29% 30.38 in 10.0 mi Calm Calm - N/A   Clear
7:55 PM 36.0 °F - 5.9 °F 29% 30.38 in 10.0 mi Calm Calm - N/A   Clear
8:15 PM 35.6 °F - 6.1 °F 29% 30.38 in 10.0 mi Calm Calm - N/A   Clear
8:35 PM 34.9 °F - 5.9 °F 30% 30.38 in 10.0 mi Calm Calm - N/A   Clear
8:55 PM 35.6 °F 31.7 °F 5.7 °F 29% 30.38 in 10.0 mi West 4.6 mph - N/A   Clear
9:15 PM 35.8 °F 31.9 °F 5.7 °F 28% 30.38 in 10.0 mi NNW 4.6 mph - N/A   Clear
9:35 PM 36.3 °F 29.5 °F 5.9 °F 28% 30.38 in 10.0 mi North 9.2 mph - N/A   Clear
9:55 PM 34.9 °F 30.8 °F 6.1 °F 30% 30.37 in 10.0 mi NNE 4.6 mph - N/A   Clear
10:15 PM 34.9 °F 30.8 °F 6.6 °F 31% 30.38 in 10.0 mi NE 4.6 mph - N/A   Clear
10:35 PM 31.6 °F - 8.1 °F 37% 30.39 in 10.0 mi Calm Calm - N/A   Clear
10:55 PM 30.9 °F - 8.4 °F 39% 30.39 in 10.0 mi Calm Calm - N/A   Clear
11:15 PM 32.0 °F 23.6 °F 8.4 °F 37% 30.37 in 10.0 mi North 10.4 mph - N/A   Clear
11:35 PM 32.4 °F 29.1 °F 7.7 °F 36% 30.38 in 10.0 mi North 3.5 mph - N/A   Clear
11:55 PM 32.2 °F 26.7 °F 6.8 °F 34% 30.37 in 10.0 mi North 5.8 mph - N/A   Clear